Lid_Strength_Index
1 1 1 1 2 2 2 2 3 3 3 3 3 3 3 3 3 3 3 3 3 3 3 3 3 3 3 4 3 -0 -2 -1 2 2 2 2 4 4 5 4 4 5 5 4 4 4 4
1 1 1 2 2 2 2 2 3 3 3 3 3 3 3 3 3 3 3 3 3 2 2 3 3 3 3 5 0 -1 1 2 2 2 2 2 3 3 4 5 5 4 4 5 4 4 4
1 1 1 2 2 2 2 2 3 3 4 4 4 4 4 4 3 3 3 4 3 2 2 3 2 2 3 3 -0 -0 1 1 1 1 2 2 2 3 3 5 3 4 6 5 5 4 5
2 2 2 2 2 2 3 3 3 3 3 4 4 4 4 4 4 3 4 4 3 2 2 2 2 2 4 1 -0 0 -0 1 0 1 1 1 2 3 4 3 4 5 6 8 5 5 5
3 3 3 3 3 3 4 4 4 4 4 4 4 4 4 4 4 4 4 4 3 2 2 2 1 2 4 0 1 1 1 2 1 1 1 1 2 3 4 6 7 6 8 8 7 5 5
4 4 4 3 3 4 4 4 4 4 4 4 4 4 4 4 4 4 5 4 2 2 2 0 1 4 3 4 2 1 1 1 2 2 3 3 4 5 5 6 10 8 8 7 8 6 5
4 4 4 4 4 4 4 4 5 4 4 5 5 5 5 5 5 5 4 2 3 3 2 4 3 3 3 2 2 2 1 2 2 3 5 4 6 7 6 6 6 7 7 8 7 5 6
4 4 5 5 5 5 5 5 5 5 5 5 5 5 5 5 5 5 4 3 4 3 5 2 3 2 2 2 4 3 1 4 4 6 5 6 7 5 5 6 6 6 7 8 6 6 6
5 5 5 5 5 5 5 5 5 5 5 5 5 5 5 5 5 3 2 3 1 1 5 4 3 4 3 3 4 4 3 3 5 6 6 7 6 5 6 6 7 7 7 8 8 6 6
5 5 5 5 5 5 5 5 5 5 5 5 5 5 6 6 4 1 2 2 1 1 7 6 5 4 3 3 5 2 2 3 5 6 5 6 5 6 6 7 6 8 6 7 7 8 10
5 5 5 5 5 5 6 5 5 5 6 6 6 5 6 6 3 2 2 1 1 2 12 6 6 2 3 4 4 4 2 3 5 6 5 7 6 6 7 7 6 7 6 6 7 8 8
5 5 5 5 5 6 6 6 6 6 6 6 6 6 6 4 1 0 0 0 1 8 11 7 5 6 5 5 4 4 4 3 3 5 5 6 4 5 6 5 5 5 6 6 7 8 11
5 5 5 5 6 6 6 6 6 6 6 6 6 6 6 3 2 0 0 2 8 10 5 7 7 5 5 6 5 5 6 6 7 8 8 6 6 5 5 6 5 6 8 11 11 11 12
5 5 5 6 6 6 5 5 6 6 6 6 7 6 4 2 0 0 1 5 10 7 7 6 6 5 7 6 6 6 6 7 5 6 8 9 10 7 5 6 7 7 8 11 14 13 11
6 5 6 6 6 6 6 6 6 6 6 6 7 3 2 0 -0 1 3 8 8 7 6 6 6 7 7 6 6 6 6 7 6 5 8 8 9 6 5 5 6 7 9 6 10 9 11
6 6 5 5 5 6 6 6 6 6 6 6 5 4 3 1 1 2 5 9 6 5 5 6 8 7 8 7 7 7 7 5 6 5 5 6 9 6 6 5 5 6 6 9 9 14 14
6 6 6 6 6 6 6 6 6 6 7 7 4 4 2 1 1 4 8 7 5 4 4 6 7 7 7 7 7 7 7 6 5 5 5 6 7 8 6 7 8 7 8 8 8 9 12
5 5 6 6 6 6 6 6 6 7 7 6 4 6 1 1 6 6 7 5 7 5 4 5 5 6 6 6 7 7 7 6 5 5 7 5 7 9 8 5 5 6 7 7 11 11 10
6 6 6 6 6 6 5 6 7 7 7 7 6 5 2 2 8 7 5 5 5 5 5 5 6 5 5 6 8 6 6 5 4 5 6 5 8 11 10 7 6 7 7 7 7 8 11
6 6 6 6 6 6 7 6 6 6 6 6 4 6 4 4 4 6 6 6 6 5 5 4 5 5 5 6 5 7 6 5 5 5 4 4 7 9 11 9 8 8 8 7 7 10 10
6 6 6 6 6 6 6 6 7 7 7 5 4 5 4 7 5 5 6 6 7 7 5 5 6 6 6 7 7 7 6 6 5 6 4 5 9 7 7 7 7 8 8 7 8 8 10
6 6 6 6 6 6 6 6 6 7 8 5 6 6 5 5 6 6 6 6 6 6 6 6 7 6 5 6 6 7 6 6 6 5 6 5 9 7 9 7 7 8 7 7 7 7 8
5 5 5 6 6 6 6 6 6 7 7 5 4 4 6 8 8 7 7 7 6 5 5 5 5 6 6 6 5 4 4 4 5 6 6 7 8 9 11 8 8 10 8 7 7 6 7
4 4 5 5 5 5 6 6 6 6 7 6 4 5 7 8 7 7 6 6 6 5 6 5 4 5 4 3 3 3 4 4 5 5 4 7 8 9 11 9 14 8 5 6 7 6 6
4 4 4 4 4 5 5 6 6 6 6 7 4 5 6 7 6 6 6 6 5 5 5 5 4 3 2 4 7 8 8 7 6 5 5 5 7 10 12 11 9 8 6 7 8 8 6
3 3 3 3 4 4 5 5 5 5 6 6 5 3 5 8 7 5 7 6 6 6 6 5 3 2 3 6 7 10 11 9 9 8 5 5 6 9 10 13 14 8 6 5 6 11 6
3 3 3 3 3 4 4 4 4 5 5 6 5 2 5 7 5 5 6 6 4 5 6 5 4 4 3 7 9 9 9 7 10 10 9 9 9 10 10 12 10 6 5 5 12 11 6
2 3 3 3 3 3 3 3 3 4 4 5 4 2 4 5 5 4 4 5 5 5 7 5 6 5 6 8 9 9 9 8 8 7 8 9 11 11 10 12 13 6 6 9 7 5 5
2 2 3 3 2 2 2 3 3 3 4 4 5 1 1 4 4 2 2 2 3 3 4 4 5 5 5 7 7 7 8 7 8 10 6 10 8 9 9 11 6 5 5 4 4 5 4